Home > Weather > Richterswil > Past weeks

Flag for Switzerland Past Weather in Richterswil, Zurich, Switzerland — Yesterday and Last 2 Weeks

Now
75 °F

Mild.


Feels Like: 77 °F
Forecast: 61 / 87 °F
Wind: 5 mph from Northeast

Location: Zuerich-Fluntern

Current Time: Aug 26, 2016 at 10:09:55 PM

Latest Report: Aug 26, 2016 at 9:00 PM


Visibility: N/A

Pressure: 30.02 "Hg

Humidity: 61%

Dew Point: 61 °F

Location of RichterswilLocation

Past Weather in Richterswil — Graph

°F

Richterswil Temperature Yesterday

Maximum temperature yesterday: 85 °F (at 5:00 PM)
Minimum temperature yesterday: 60 °F (at 7:00 AM)
Average temperature yesterday: 72 °F

High & Low Weather Summary for the Past Weeks

 TemperatureHumidityPressure
High89 °F (Aug 26, 4:00 PM)97% (Aug 18, 6:00 PM)30.39 "Hg (Aug 18, 6:00 PM)
Low52 °F (Aug 22, 5:00 AM)37% (Aug 26, 5:00 PM)29.80 "Hg (Aug 17, 6:00 PM)
Average67 °F74%30.10 "Hg
* Reported Aug 11 8:00 PM — Aug 26 8:00 PM, Richterswil, Weather by CustomWeather, © 2016

Note: Actual official high and low records may vary slightly from our data, if they occured in-between our weather recording intervals... More about our weather records

Advertising

Richterswil Weather History for the Previous 24 Hours

Scroll right to see more
 ConditionsComfort  
Time TempWeatherWind HumidityBarometerVisibility
8:00 PM
Fri, Aug 26
78 °FSunny.2 mph57%30.00 "HgN/A
7:00 PM83 °FWarm.No wind57%29.98 "HgN/A
6:00 PM86 °FWarm.2 mph41%29.97 "HgN/A
5:00 PM87 °FPleasantly warm.2 mph37%29.98 "HgN/A
4:00 PM89 °FHot.2 mph38%29.98 "HgN/A
3:00 PM87 °FWarm.3 mph48%29.99 "HgN/A
2:00 PM85 °FSunny.5 mph48%30.01 "HgN/A
1:00 PM83 °FWarm.2 mph55%30.02 "HgN/A
12:00 PM80 °FWarm.3 mph65%30.04 "HgN/A
11:00 AM78 °FWarm.2 mph74%30.05 "HgN/A
10:00 AM74 °FMild.1 mph76%30.06 "HgN/A
9:00 AM70 °FMild.1 mph87%30.07 "HgN/A
8:00 AM68 °FMild.1 mph91%30.07 "HgN/A
7:00 AM66 °FMild.No wind95%30.07 "HgN/A
6:00 AM66 °FMild.No wind94%30.06 "HgN/A
5:00 AM66 °FMild.No wind93%30.06 "HgN/A
4:00 AM67 °FMild.1 mph93%30.04 "HgN/A
3:00 AM68 °FMild.1 mph92%30.03 "HgN/A
2:00 AM69 °FMild.2 mph90%30.02 "HgN/A
1:00 AM69 °FMild.No wind90%30.03 "HgN/A
12:00 AM70 °FMild.No wind86%30.02 "HgN/A
11:00 PM
Thu, Aug 25
71 °FMild.No wind84%30.02 "HgN/A
10:00 PM72 °FMild.2 mph81%30.01 "HgN/A
Weather by CustomWeather, © 2016

See weather overviewHow to use our weather pages